DECAYED

DELTA 1 DEB, 21369 (Decayed)

Orbit data source: Space-Track

DELTA 1 DEB, 21369 was space debris in SSO originally from a launch on Thu, 12 Jun 1975 UTC launched from the Air Force Western Test Range (AFWTR). Debris objects in space refer to the collection of defunct objects orbiting the Earth. Examples of debris include non-operational satellites, rocket bodies, and fragments generated from explosions, collisions, or faulty payload assembly.

Not visible in the next 10 days
Identifier
21369, 1975-052CP
Orbit
Decayed
Country
Flag of USUS
Related business
Manufacturer
Unknown
Mission
Decayed spacecraft
Bus & Motor
Unknown
Mass
Unknown
Launch date (UTC)
1975-06-12 (50 years ago)
Launch vehicle
Unknown
Launch site
Air Force Western Test Range (AFWTR)
Object type
Payload
Rocket body
Debris
Shape & HBR
Unknown shape, 0.1 m
Radar Cross Section
Small (<0.1 m²)

Expand to show TLE details & history
Last TLE update: 1 week ago

TLE from 1 week ago
0 DELTA 1 DEB
1 21369U 75052CP  25302.58632137  .08840260  23813-0  31879-1 0  9991
2 21369  99.5934  24.5090 0020789 306.3300  53.6050 15.97241645762641
Epoch: 2025-10-29T14:04Z
TLE epoch observation values (Epoch: 2025-10-29T14:04:18.166Z)
Latitude
Longitude
135.27598°
Altitude
276.997 km
Speed
7.746 km/s
True Right ascension
01h 38m 02s
True Declination
0° 00' 00"
Sunlit
Object was in full shadow at epoch
Visualization orbit readout
Latitude
Unknown
Longitude
Unknown
Altitude
Unknown
Speed
Unknown
Apparent Right ascension
Unknown
Apparent Declination
Unknown
Sunlit
N/A
Visualization observer readout
Local Sidereal Time
09:19:39
Azimuth
Unknown
Elevation
Unknown
Doppler factor
Unknown
Orbital elements
Apogee altitude
292.889 km
Perigee altitude
265.21 km
Semi-major axis
6,657.187 km
Eccentricity
0.00208
Inclination
99.5934°
RAAN
24.509°
Arg. of periapsis
306.33°
True anomaly
53.79705°
Mean anomaly
53.605°
Eccentric anomaly
53.701°
Mean motion
3.99583 °/min
Orbital period
90.09 mins
BSTAR
0.031879
Loading maneuver chart data...
Computing Atmospheric mass density...
Loading historical data...
Loading historical data...
Loading historical data...
Loading historical data...
Loading historical data...
Loading historical data...
Loading historical data...

Documentation

Showing up to 5 results
|